COMPASS
1 32787U 08021E 15057.09141922 .00003356 00000-0 35381-3 0 9994
2 32787 097.6672 108.1490 0014604 065.9114 294.3630 14.89903825369969
AAUSAT2
1 32788U 08021F 15057.09273922 .00004068 00000-0 41777-3 0 9998
2 32788 097.6681 109.4822 0014014 063.8659 296.3999 14.90849336370048
DO-64
1 32789U 08021G 15057.17481301 .00007946 00000-0 67893-3 0 9995
2 32789 097.6864 118.8921 0011084 044.3343 017.2439 14.97873600370456
CO-66
1 32791U 08021J 15057.10479594 .00002236 00000-0 24807-3 0 9997
2 32791 097.6662 106.3281 0015281 070.5525 289.7342 14.88140169369793
RS-30
1 32953U 08025A 15057.56758822 .00000010 00000-0 -13620-7 0 9999
2 32953 082.5015 043.0273 0018277 324.9107 035.0763 12.43057077306868
METEOR-M
1 35865U 09049A 15057.73901284 .00000114 00000-0 70766-4 0 9997
2 35865 098.5152 101.9628 0003236 080.1745 279.9798 14.21994516282516
RS-38
1 35869U 09049E 15057.72295382 .00000082 00000-0 55779-4 0 9996
2 35869 098.5065 101.6302 0005449 077.4710 282.7078 14.22273907282550
JUGNU
1 37839U 11058B 15057.52181601 .00000457 00000-0 10203-3 0 9992
2 37839 019.9612 153.3610 0018831 267.6183 196.0730 14.12426515174552
SRMSAT
1 37841U 11058D 15057.59137544 .00000419 00000-0 85715-4 0 9998
2 37841 019.9716 177.3913 0011593 197.8516 266.7021 14.10445825174319
RAX-2
1 37853U 11061D 15057.46575297 .00005228 00000-0 33320-3 0 9999
2 37853 101.7097 214.2665 0201652 038.8247 010.7533 14.94301181180568
AUBIESAT
1 37854U 11061E 15057.38964769 .00006833 00000-0 41567-3 0 9992
2 37854 101.7155 217.0623 0197514 034.6274 021.1316 14.96199974180645
HRBE
1 37855U 11061F 15057.37498174 .00005616 00000-0 34957-3 0 9997
2 37855 101.7152 215.9270 0200619 036.8575 324.6230 14.95173463180580
RS-39
1 38051U 11062C 14288.65876392 .70201582 12497-4 27925-2 0 9995
2 38051 051.5964 324.1908 0006422 269.6897 186.8903 16.43533377153081
E-STAR
1 38079U 12006C 15016.13455217 .17990388 48979-5 52837-3 0 9992
2 38079 069.3967 125.0648 0013168 047.0341 316.5109 16.44007688156194
GOLIAT
1 38085U 12006J 15047.13271005 .15174231 50628-5 38163-3 0 9993
2 38085 069.4022 049.8202 0017770 344.8867 016.3100 16.44194733160691
HORYU-2
1 38340U 12025D 15057.13305872 .00002019 00000-0 31640-3 0 9994
2 38340 098.3000 024.3242 0013594 090.3405 269.9360 14.73797861149170
RS-40
1 38735U 12041C 15057.64144062 .00000040 00000-0 21992-3 0 9999
2 38735 082.4783 128.9151 0017653 064.1362 296.1540 12.42567447117188
PROITERES
1 38756U 12047B 15057.81345492 .00001053 00000-0 16225-3 0 9995
2 38756 098.2181 155.2759 0011333 293.3627 066.6385 14.75580051132722
BEESAT-3
1 39134U 13015E 15056.37986437 .00010534 00000-0 64579-3 0 9991
2 39134 064.8739 054.7067 0034596 267.8834 091.8327 15.10058958101805
BEESAT-2
1 39136U 13015G 15057.18774611 .00007683 00000-0 49084-3 0 9997
2 39136 064.8744 053.7156 0035131 267.4455 092.2645 15.08790024101905
LO-75
1 39382U 13064C 14295.69194059 .07301741 00000-0 36367-2 0 9993
2 39382 040.4713 030.2705 0002289 341.7175 018.4586 16.19795749470823
ZACUBE-1
1 39417U 13066B 15057.14760134 .00001875 00000-0 25097-3 0 9991
2 39417 097.7434 123.7911 0062197 137.4593 223.1462 14.79266302 68218
TRITON-1
1 39427U 13066M 15057.40258327 .00001368 00000-0 23199-3 0 9995
2 39427 097.7297 114.6127 0117403 160.2175 200.3641 14.66297221 67636
DELFIN3XT
1 39428U 13066N 15057.16734629 .00002371 00000-0 40360-3 0 9997
2 39428 097.7301 112.9185 0126417 165.1078 195.3905 14.64792036 67480
GOMX-1
1 39430U 13066Q 15057.71256816 .00001592 00000-0 30483-3 0 9997
2 39430 097.7241 108.7395 0154512 177.2149 182.9943 14.57709620 67283
MO-76
1 39436U 13066W 15057.15207073 .00023326 00000-0 18273-2 0 9993
2 39436 097.7532 133.0850 0023412 118.6150 241.7433 15.00780073 68801
LO-74
1 39440U 13066AA 15057.71336544 .00001636 00000-0 24209-3 0 9993
2 39440 097.7388 120.5991 0083708 144.0541 216.6339 14.74119838 68051
PUCPSAT-1
1 39442U 13066AC 15056.74700314 .00003274 00000-0 35980-3 0 9995
2 39442 097.7506 129.3164 0034854 129.8821 230.5470 14.87873347 67296
SHINAISAT
1 39572U 14009A 14328.13084988 .28848087 76253-5 66603-3 0 9996
2 39572 064.9728 197.0096 0013534 259.7861 100.1802 16.45181032 42403
TEIKYOSAT
1 39576U 14009E 14297.85867254 .09345816 76764-5 25176-3 0 9997
2 39576 064.9818 300.5833 0008491 317.3597 044.3862 16.45008906 37698
CO-77
1 39577U 14009F 14244.78324653 .10543803 76292-5 32273-3 0 9993
2 39577 064.9920 123.7668 0014904 269.7208 091.1897 16.43552757 29380
SPROUT
1 39770U 14029E 15057.84703357 .00002104 00000-0 26224-3 0 9993
2 39770 097.8690 156.2261 0009679 194.3071 165.7857 14.83469802 41274
POPSAT-HIP1
1 40028U 14033U 15057.74556441 .00002346 00000-0 27136-3 0 9996
2 40028 097.9664 317.8789 0014266 178.7353 181.3929 14.86448250 37378
EO-80
1 40032U 14033Y 15057.71955770 .00002273 00000-0 26495-3 0 9992
2 40032 097.9620 317.6346 0012215 173.7194 186.4177 14.86177335 37376
VELOX-1
1 40057U 14034E 15057.73790417 .00002485 00000-0 37466-3 0 9992
2 40057 098.2246 134.0332 0010758 227.7854 132.2441 14.75265813 35592
DAURIA DX 1
1 40071U 14037C 15057.81118434 .00001157 00000-0 15998-3 0 9994
2 40071 098.3694 124.6408 0007807 228.3933 131.6607 14.80121870 34463
UKUBE-1
1 40074U 14037F 15057.76879655 .00002447 00000-0 31848-3 0 9995
2 40074 098.3705 125.0552 0003950 232.4176 127.6674 14.81623811 34488
CHASQUI-1
1 40117U 98067ET 15014.73322295 .07508583 12315-4 10026-2 0 9990
2 40117 051.6189 112.4445 0004239 337.2783 022.7551 16.34635278 23368
HODOYOSHI-1
1 40299U 14070B 15057.80081058 .00004607 00000-0 22777-3 0 9999
2 40299 097.4626 140.7452 0013893 153.1912 323.9552 15.18247319 17063
CHUBUSAT-1
1 40300U 14070C 15057.82012147 .00006415 00000-0 33179-3 0 9994
2 40300 097.4599 140.3847 0023413 155.2232 321.4137 15.16357205 17040
QSAT-EOS
1 40301U 14070D 15057.78308873 .00010807 00000-0 57796-3 0 9995
2 40301 097.4568 139.9362 0034297 156.6255 319.6311 15.14727462 17019
TSUBAME
1 40302U 14070E 15057.91084131 .00006583 00000-0 38169-3 0 9998
2 40302 097.4547 139.5821 0044777 157.3402 322.3997 15.11644583 17008
FIREBIRD FU3
1 40377U 15003B 15057.57683316 .00012174 00000-0 63808-3 0 9990
2 40377 099.1252 070.7602 0164466 254.9754 103.3208 15.04974679 3907
FIREBIRD FU4
1 40378U 15003C 15057.57633172 .00012058 00000-0 63107-3 0 9999
2 40378 099.1254 070.7610 0164661 254.9393 103.3553 15.05001664 3904
GRIFEX
1 40379U 15003D 15057.57905491 .00010096 00000-0 53346-3 0 9990
2 40379 099.1265 070.7602 0164410 255.8794 102.4106 15.04784479 3900
